[[{"header":{"parameterUnit":"m.s-1","parameterCategory":1,"la1":30.2991,"la2":30.254,"lo1":-89.0895,"lo2":-89.0444,"dy":0.0017,"dx":0.0017,"nx":28,"ny":28,"refTime":"2025-01-12T09:00:00:Z","depth":0,"parameterNumber":2,"parameterNumberName":"U-component_of_WINDS"},"data":[0,0,0,0,0,0,0,0,0,0,0,0,0,0,0,0,0,0,0,0,0,0,0,0,0,0,0,0,0,0,0,0,0,0,0,0,0,0,0,0,0,0,0,0,0,0,0,0,0,0,0,0,0,0,0,0,0,0,-0.4277,-0.4279,0,-0.439,-0.4392,-0.4393,-0.4395,-0.4393,-0.4392,-0.4391,-0.4509,-0.4513,-0.4518,0,0,0,0,0,0,0,0,0,0,0,0,0,-0.4065,-0.4069,-0.4277,-0.4279,-0.428,-0.439,-0.4392,-0.4393,-0.4395,-0.4393,-0.4392,-0.439,-0.4507,-0.4513,-0.4518,0,0,0,0,0,0,0,0,0,0,0,0,0,-0.4165,-0.407,-0.4277,-0.4294,-0.4297,-0.439,-0.4392,-0.4394,-0.4395,-0.4393,-0.4391,-0.4389,-0.4506,-0.4512,-0.4519,-0.4603,0,0,-0.4539,-0.4542,0,0,0,0,0,0,0,0,-0.416,-0.4173,-0.429,-0.4293,-0.4296,-0.4376,-0.436,-0.4464,-0.4396,-0.4358,-0.4391,-0.4388,-0.4467,-0.4476,-0.4502,-0.4608,-0.4613,-0.454,-0.4544,-0.4547,-0.4549,0,0,0,0,0,0,0,-0.4153,-0.4168,-0.4322,-0.4292,-0.4296,-0.4297,-0.4309,-0.438,-0.4423,-0.4361,-0.4362,-0.4375,-0.4468,-0.4496,-0.4505,-0.4615,-0.454,-0.4546,-0.455,-0.4552,-0.4796,-0.4798,0,0,0,0,0,0,-0.4142,-0.4162,-0.4318,-0.4325,-0.4221,-0.4302,-0.4316,-0.4353,-0.4422,-0.4431,-0.4376,-0.4374,-0.4485,-0.4497,-0.4509,-0.4613,-0.4547,-0.4553,-0.4557,-0.4793,-0.4796,-0.4799,0,0,0,0,0,0,-0.4137,-0.4156,-0.4314,-0.4244,-0.4264,-0.4308,-0.435,-0.4356,-0.4384,-0.4434,-0.4442,-0.4397,-0.4484,-0.45,-0.4579,-0.4617,-0.4556,-0.4562,-0.479,-0.4794,-0.4798,-0.482,0,0,0,0,0,0,-0.4131,-0.4154,-0.4186,-0.4245,-0.4268,-0.4382,-0.4352,-0.436,-0.4395,-0.4394,-0.4455,-0.4463,-0.4484,-0.4569,-0.4586,-0.4625,-0.4567,-0.4787,-0.4792,-0.4796,-0.4817,-0.4824,-0.4831,0,0,0,0,0,-0.4124,-0.4189,-0.4188,-0.4207,-0.4309,-0.4384,-0.4397,-0.4419,-0.4398,-0.4431,-0.4463,-0.4461,-0.4609,-0.4577,-0.4596,-0.4638,-0.4785,-0.4791,-0.4796,-0.4813,-0.4823,-0.4831,0,0,0,0,0,0,-0.4135,-0.4197,-0.4197,-0.4283,-0.4328,-0.4384,-0.4427,-0.4428,-0.4481,-0.4478,-0.4502,-0.4516,-0.4596,-0.4624,-0.4588,-0.4723,-0.4695,-0.4704,-0.4702,-0.4711,-0.4718,-0.4711,-0.4573,0,0,0,0,0,-0.4147,-0.4202,-0.4253,-0.4324,-0.4347,-0.4383,-0.4416,-0.4428,-0.4477,-0.4496,-0.4534,-0.4581,-0.4639,-0.4676,-0.4731,-0.482,-0.4834,-0.4857,-0.4865,-0.487,-0.4879,-0.4928,-0.494,-0.4817,-0.4817,-0.4817,0,0,-0.4174,-0.4214,-0.4248,-0.4328,-0.4364,-0.4421,-0.4399,-0.446,-0.4503,-0.4506,-0.4584,-0.4612,-0.4667,-0.4751,-0.479,-0.4778,-0.4916,-0.4877,-0.4882,-0.4887,-0.4935,-0.4947,-0.4957,-0.4821,-0.482,-0.4819,0,0,-0.4252,-0.4287,-0.4351,-0.4387,-0.4442,-0.4465,-0.448,-0.4536,-0.4555,-0.4633,-0.4636,-0.4687,-0.4785,-0.4824,-0.4857,-0.4947,-0.4948,-0.4964,-0.5003,-0.5051,-0.506,-0.5069,-0.5103,-0.5114,-0.4972,-0.4972,-0.4972,0,-0.4279,-0.4364,-0.4383,-0.4445,-0.448,-0.4483,-0.4548,-0.4582,-0.4653,-0.4678,-0.4662,-0.4784,-0.4821,-0.4915,-0.4937,-0.4963,-0.4981,-0.4959,-0.5057,-0.5066,-0.5075,-0.5107,-0.5119,-0.4974,-0.4974,-0.4973,-0.4973,0,-0.4394,-0.4453,-0.4498,-0.4565,-0.4605,-0.4668,-0.4697,-0.4735,-0.4743,-0.4767,-0.4847,-0.489,-0.4955,-0.4977,-0.4986,-0.5072,-0.5063,-0.5052,-0.5025,-0.5088,-0.5119,-0.5131,-0.4976,-0.4976,-0.4975,-0.4975,0,0,-0.4486,-0.4561,-0.4577,-0.4607,-0.4667,-0.4714,-0.4776,-0.4838,-0.4871,-0.4919,-0.4972,-0.5054,-0.5044,-0.5081,-0.5094,-0.5135,-0.5205,-0.5119,-0.5121,-0.5135,-0.5303,-0.5313,-0.5327,-0.5205,-0.5207,-0.5209,-0.5299,0,-0.4571,-0.4682,-0.47,-0.4798,-0.4853,-0.4856,-0.491,-0.4953,-0.4977,-0.5028,-0.5054,-0.5112,-0.5094,-0.5116,-0.5157,-0.5188,-0.524,-0.5181,-0.5256,-0.5259,-0.5245,-0.5342,-0.5353,-0.5436,-0.5311,-0.5313,-0.5315,0,-0.4687,-0.4737,-0.4839,-0.4891,-0.4915,-0.4964,-0.5022,-0.507,-0.5118,-0.5133,-0.5173,-0.5181,-0.5246,-0.5213,-0.5304,-0.5264,-0.5295,-0.5315,-0.5318,-0.5328,-0.5292,-0.5357,-0.5463,-0.5476,-0.5334,-0.5332,-0.5331,0,-0.4745,-0.4837,-0.4911,-0.4937,-0.4999,-0.5033,-0.506,-0.5107,-0.5142,-0.5193,-0.5216,-0.5274,-0.5306,-0.535,-0.5373,-0.5347,-0.5462,-0.5432,-0.5477,-0.5477,-0.5504,-0.5502,-0.5619,-0.552,-0.552,-0.552,-0.552,0,-0.484,-0.4903,-0.4938,-0.4983,-0.5054,-0.5074,-0.5143,-0.517,-0.5211,-0.5262,-0.5267,-0.5315,-0.5341,-0.5393,-0.5411,-0.5484,-0.5498,-0.5512,-0.5517,-0.5513,-0.5512,-0.5536,-0.5531,-0.5523,-0.5522,-0.5522,-0.5521,0,-0.4918,-0.4943,-0.5024,-0.5075,-0.509,-0.514,-0.5184,-0.5228,-0.5251,-0.5315,-0.5332,-0.5368,-0.5429,-0.5455,-0.5531,-0.5543,-0.5627,-0.5626,-0.561,-0.5612,-0.5657,-0.5653,-0.5795,-0.5815,-0.5701,-0.5702,-0.5703,0,-0.4978,-0.5027,-0.5083,-0.5117,-0.5145,-0.52,-0.5236,-0.5256,-0.5294,-0.5352,-0.539,-0.545,-0.55,-0.5598,-0.5631,-0.5689,-0.5691,-0.5736,-0.57,-0.5694,-0.5693,-0.5691,-0.5696,-0.5744,-0.5745,-0.5746,-0.5746,0,-0.5083,-0.5093,-0.5144,-0.52,-0.5243,-0.5288,-0.5332,-0.536,-0.5387,-0.5429,-0.5491,-0.5529,-0.5605,-0.5666,-0.5725,-0.5754,-0.5756,-0.5757,-0.5771,-0.5769,-0.5759,-0.5766,-0.5631,-0.5755,-0.5754,-0.5753,-0.5753,-0.5752,-0.5155,-0.5198,-0.5244,-0.5301,-0.5336,-0.5377,-0.5421,-0.5449,-0.5501,-0.5564,-0.5572,-0.5639,-0.5685,-0.5765,-0.5795,-0.5848,-0.5837,-0.5856,-0.5862,-0.5867,-0.587,-0.5748,-0.5858,-0.5858,-0.5858,-0.5858,-0.5858,0,-0.5261,-0.529,-0.5343,-0.5404,-0.5449,-0.5443,-0.5492,-0.553,-0.5588,-0.5631,-0.5679,-0.575,-0.5808,-0.5845,-0.5904,-0.5939,-0.5941,-0.5954,-0.5953,-0.596,-0.5876,-0.5859,-0.5951,-0.5951,-0.5951,-0.5951,-0.5951,-0.5951,-0.5322,-0.5395,-0.541,-0.55,-0.5529,-0.5594,-0.5622,-0.566,-0.5694,-0.5772,-0.5821,-0.5844,-0.5884,-0.5946,-0.5999,-0.6008,-0.603,-0.6044,-0.6053,-0.5975,-0.5966,-0.5956,-0.5941,-0.6048,-0.6049,-0.6133,-0.6134,-0.6134]},{"header":{"parameterUnit":"m.s-1","parameterCategory":1,"la1":30.2991,"la2":30.254,"lo1":-89.0895,"lo2":-89.0444,"dy":0.0017,"dx":0.0017,"nx":28,"ny":28,"refTime":"2025-01-12T09:00:00:Z","depth":0,"parameterNumber":3,"parameterNumberName":"V-component_of_WINDS"},"data":[0,0,0,0,0,0,0,0,0,0,0,0,0,0,0,0,0,0,0,0,0,0,0,0,0,0,0,0,0,0,0,0,0,0,0,0,0,0,0,0,0,0,0,0,0,0,0,0,0,0,0,0,0,0,0,0,0,0,-6.9004,-6.9006,0,-6.9161,-6.9163,-6.9165,-6.9084,-6.908,-6.9076,-6.9072,-6.9229,-6.9237,-6.9245,0,0,0,0,0,0,0,0,0,0,0,0,0,-6.863,-6.8637,-6.9004,-6.9006,-6.9008,-6.9161,-6.9163,-6.9165,-6.9085,-6.908,-6.9075,-6.907,-6.9226,-6.9236,-6.9245,0,0,0,0,0,0,0,0,0,0,0,0,0,-6.879,-6.8639,-6.9004,-6.8987,-6.8987,-6.9161,-6.9163,-6.9166,-6.9086,-6.908,-6.9074,-6.9068,-6.9223,-6.9235,-6.9247,-6.9445,0,0,-6.9284,-6.9289,0,0,0,0,0,0,0,0,-6.8781,-6.8804,-6.8987,-6.8988,-6.8988,-6.9097,-6.9089,-6.926,-6.9088,-6.9048,-6.9072,-6.9065,-6.919,-6.9204,-6.9247,-6.9453,-6.9459,-6.9285,-6.9292,-6.9297,-6.9301,0,0,0,0,0,0,0,-6.877,-6.8797,-6.9066,-6.899,-6.8991,-6.8969,-6.8985,-6.9121,-6.9152,-6.9051,-6.9046,-6.9066,-6.9189,-6.9236,-6.925,-6.9462,-6.9284,-6.9295,-6.9302,-6.9307,-6.9838,-6.9844,0,0,0,0,0,0,-6.876,-6.8788,-6.9061,-6.9071,-6.8867,-6.8981,-6.8999,-6.9068,-6.915,-6.9157,-6.9071,-6.9061,-6.9218,-6.9236,-6.9255,-6.9494,-6.9297,-6.9308,-6.9315,-6.9831,-6.9839,-6.9847,0,0,0,0,0,0,-6.8753,-6.8786,-6.9055,-6.8928,-6.8961,-6.8994,-6.9073,-6.9075,-6.9122,-6.9165,-6.917,-6.9114,-6.9214,-6.9238,-6.9399,-6.9498,-6.9314,-6.9325,-6.9823,-6.9834,-6.9843,-6.9973,0,0,0,0,0,0,-6.8742,-6.8783,-6.886,-6.893,-6.8968,-6.9198,-6.9079,-6.9082,-6.9143,-6.9132,-6.9206,-6.9212,-6.9211,-6.9382,-6.9411,-6.9512,-6.9334,-6.9814,-6.9828,-6.984,-6.996,-6.9986,-7.0009,0,0,0,0,0,-6.8729,-6.889,-6.8865,-6.8898,-6.9065,-6.9204,-6.9225,-6.9221,-6.9151,-6.9229,-6.9256,-6.921,-6.9482,-6.9399,-6.9431,-6.9537,-6.9808,-6.9824,-6.9839,-6.9949,-6.9981,-7.0008,0,0,0,0,0,0,-6.8829,-6.8898,-6.8872,-6.906,-6.9127,-6.919,-6.9287,-6.9255,-6.9342,-6.9328,-6.9319,-6.9336,-6.9503,-6.9535,-6.9441,-6.9733,-6.9634,-6.9657,-6.9707,-6.9738,-6.9762,-6.9751,-6.9344,0,0,0,0,0,-6.8873,-6.8981,-6.9035,-6.9196,-6.9231,-6.9254,-6.9314,-6.9305,-6.9373,-6.9401,-6.944,-6.9507,-6.9607,-6.9674,-6.9769,-6.9963,-6.9978,-7.0052,-7.0076,-7.0096,-7.0116,-7.0222,-7.0255,-6.9898,-6.9898,-6.9897,0,0,-6.8965,-6.9016,-6.9085,-6.9217,-6.9268,-6.9379,-6.9278,-6.9399,-6.9482,-6.9419,-6.9574,-6.9605,-6.9678,-6.9857,-6.9938,-6.9889,-7.0218,-7.0116,-7.0132,-7.0141,-7.0241,-7.0275,-7.0305,-6.9908,-6.9906,-6.9905,0,0,-6.9189,-6.9239,-6.9379,-6.9432,-6.9511,-6.9524,-6.9558,-6.9626,-6.9645,-6.9801,-6.9756,-6.9852,-7.0025,-7.008,-7.013,-7.0375,-7.0336,-7.0406,-7.0535,-7.0638,-7.0666,-7.0691,-7.0779,-7.081,-7.0425,-7.0426,-7.0426,0,-6.9293,-6.9461,-6.9454,-6.958,-6.964,-6.9589,-6.973,-6.9781,-6.9886,-6.9928,-6.9872,-7.0089,-7.0134,-7.0325,-7.0385,-7.0427,-7.0465,-7.0398,-7.0662,-7.0687,-7.071,-7.0794,-7.0827,-7.0434,-7.0433,-7.0432,-7.0431,0,-6.9585,-6.9701,-6.9804,-6.9909,-6.998,-7.0112,-7.0125,-7.0197,-7.0182,-7.0201,-7.0359,-7.0413,-7.0518,-7.0562,-7.0547,-7.0751,-7.0719,-7.0663,-7.0563,-7.0753,-7.0831,-7.0863,-7.0446,-7.0443,-7.044,-7.0438,0,0,-6.9878,-6.9977,-7.0016,-7.0063,-7.0145,-7.0235,-7.0364,-7.0468,-7.053,-7.0604,-7.0712,-7.086,-7.0809,-7.0866,-7.0857,-7.0948,-7.1139,-7.0881,-7.0882,-7.0928,-7.1366,-7.1409,-7.1446,-7.1112,-7.1118,-7.1123,-7.136,0,-7.0109,-7.0338,-7.0336,-7.0548,-7.0655,-7.0608,-7.072,-7.0783,-7.0804,-7.0897,-7.0918,-7.1024,-7.0949,-7.0983,-7.107,-7.1097,-7.1227,-7.108,-7.1213,-7.1217,-7.1198,-7.1487,-7.1533,-7.1754,-7.1391,-7.1396,-7.14,0,-7.041,-7.0496,-7.0719,-7.0786,-7.0831,-7.0933,-7.1028,-7.1117,-7.1186,-7.1195,-7.1259,-7.1236,-7.1366,-7.1262,-7.1441,-7.1341,-7.1395,-7.1416,-7.1424,-7.1438,-7.1321,-7.1509,-7.1824,-7.1858,-7.1448,-7.1444,-7.1441,0,-7.0603,-7.0773,-7.0929,-7.097,-7.1053,-7.1125,-7.1162,-7.1225,-7.1288,-7.137,-7.1411,-7.1506,-7.1559,-7.1633,-7.1636,-7.156,-7.1817,-7.1712,-7.1827,-7.1828,-7.1885,-7.1882,-7.2214,-7.1918,-7.1917,-7.1916,-7.1916,0,-7.0863,-7.1001,-7.1017,-7.1113,-7.1266,-7.1261,-7.1412,-7.1442,-7.1499,-7.1599,-7.1562,-7.1656,-7.1654,-7.1749,-7.1751,-7.1899,-7.1923,-7.1933,-7.1933,-7.1938,-7.1937,-7.1974,-7.1959,-7.1925,-7.1923,-7.1921,-7.192,0,-7.1105,-7.1121,-7.1288,-7.1352,-7.1371,-7.1482,-7.1536,-7.1626,-7.1643,-7.177,-7.1799,-7.1827,-7.1937,-7.1946,-7.2073,-7.2075,-7.2255,-7.2236,-7.2233,-7.223,-7.2345,-7.2334,-7.2714,-7.2764,-7.2433,-7.2437,-7.2439,0,-7.127,-7.1376,-7.1452,-7.1517,-7.1559,-7.1664,-7.1728,-7.1726,-7.1794,-7.1881,-7.1961,-7.2067,-7.2153,-7.2331,-7.2361,-7.2458,-7.2442,-7.2568,-7.2456,-7.2458,-7.2445,-7.244,-7.245,-7.2591,-7.2594,-7.2597,-7.26,0,-7.1562,-7.1565,-7.166,-7.1759,-7.1837,-7.1913,-7.1985,-7.204,-7.2046,-7.2124,-7.2237,-7.2304,-7.2434,-7.2541,-7.2636,-7.2671,-7.2638,-7.2635,-7.2666,-7.2674,-7.2668,-7.2674,-7.2293,-7.2626,-7.2624,-7.2622,-7.262,-7.2619,-7.1772,-7.1864,-7.1932,-7.2039,-7.2093,-7.2161,-7.225,-7.2278,-7.2373,-7.2481,-7.2473,-7.2598,-7.2663,-7.2787,-7.283,-7.2927,-7.2884,-7.293,-7.2942,-7.2954,-7.2967,-7.2651,-7.2944,-7.2943,-7.2942,-7.2942,-7.2941,0,-7.2063,-7.2105,-7.2203,-7.2306,-7.239,-7.235,-7.2427,-7.25,-7.2611,-7.2675,-7.2761,-7.289,-7.2993,-7.3031,-7.3131,-7.3201,-7.3188,-7.3227,-7.3223,-7.3232,-7.2998,-7.2962,-7.3237,-7.3237,-7.3236,-7.3236,-7.3236,-7.3236,-7.2225,-7.2379,-7.239,-7.257,-7.2609,-7.2733,-7.2781,-7.2843,-7.2894,-7.3041,-7.3127,-7.3152,-7.3205,-7.3308,-7.3401,-7.3409,-7.3448,-7.3495,-7.3496,-7.3278,-7.3248,-7.322,-7.3185,-7.3503,-7.3503,-7.3722,-7.3724,-7.3725]}]]